This is the latest recevied weather packets stored in our database for station/object DJ4RO-13. If no packets are shown the sender has not sent any weather packets the latest 1 day(s).
| Time | Temp. | Humidity | Pressure | Rain* | Wind** | Luminosity | Snow |
|---|---|---|---|---|---|---|---|
| 1778009402 | 12.78° C | 92% | 1005.3 hPa | 0 mm | 0 m/s | - | - |
| 1778008802 | 12.78° C | 92% | 1005.6 hPa | 0 mm | 0.45 m/s, 335° | - | - |
| 1778008202 | 12.78° C | 92% | 1005.3 hPa | 0 mm | 0.45 m/s, 24° | - | - |
| 1778007602 | 12.78° C | 91% | 1005.4 hPa | 0 mm | 0.45 m/s, 318° | - | - |
| 1778007002 | 13.33° C | 91% | 1005.2 hPa | 0 mm | 0.89 m/s, 19° | - | - |
| 1778006402 | 13.33° C | 90% | 1005.2 hPa | 0 mm | 0.89 m/s, 330° | - | - |
| 1778005802 | 13.89° C | 89% | 1005.3 hPa | 0 mm | 0.89 m/s, 331° | - | - |
| 1778005202 | 13.89° C | 89% | 1005.2 hPa | 0 mm | 0 m/s | - | - |
| 1778004602 | 14.44° C | 88% | 1005.3 hPa | 0 mm | 0.45 m/s, 35° | - | - |
| 1778004002 | 15° C | 87% | 1005.2 hPa | 0 mm | 0 m/s | - | - |
| 1778003402 | 15° C | 86% | 1005.1 hPa | 0 mm | 0 m/s | - | - |
| 1778002802 | 15° C | 85% | 1005.1 hPa | 0 mm | 0.89 m/s, 332° | - | - |
| 1778002202 | 15° C | 85% | 1005.3 hPa | 0 mm | 0 m/s | - | - |
| 1778001602 | 15.56° C | 85% | 1005.1 hPa | 0 mm | 0 m/s | - | - |
| 1778001002 | 15.56° C | 83% | 1005 hPa | 0 mm | 0.89 m/s, 6° | - | - |
| 1778000402 | 16.11° C | 82% | 1005.1 hPa | 0 mm | 0.45 m/s, 330° | - | - |
| 1777999802 | 16.67° C | 81% | 1005.4 hPa | 0 mm | 0.89 m/s, 323° | - | - |
| 1777999202 | 16.11° C | 82% | 1005.2 hPa | 0 mm | 0 m/s | - | - |
| 1777998602 | 16.11° C | 82% | 1005.1 hPa | 0 mm | 0.89 m/s, 321° | - | - |
| 1777998002 | 16.11° C | 82% | 1005.4 hPa | 0 mm | 0.89 m/s, 110° | - | - |
| 1777997402 | 16.11° C | 83% | 1005.4 hPa | 0 mm | 0.45 m/s, 332° | - | - |
| 1777996802 | 16.11° C | 82% | 1005.4 hPa | 0 mm | 0.89 m/s, 306° | - | - |
| 1777996202 | 16.67° C | 80% | 1005.4 hPa | 0 mm | 0.45 m/s, 309° | - | - |
| 1777995602 | 17.22° C | 78% | 1005.5 hPa | 0 mm | 0 m/s | - | - |
| 1777995002 | 17.22° C | 77% | 1005.5 hPa | 0 mm | 0 m/s | - | - |
* Rain latest hour (hover to see other rain measurements)
** Current wind speed in m/s (hover to see current wind gust speed)